Location: ???? ???? ?????
(31.2680°N, 31.7283°E)
Time: 19:36:34
(UTC+00:00)

ATLAS 2AS CENTAUR R/B - Pass Details

Date: 13 July 2020
Orbit: 930 x 1282 km, 63.7° (Epoch: 19 July)

Event Time Altitude Azimuth Distance (km) Brightness Sun altitude
Rises 18:31:55 0° 340° (NNW) 4,123 6.8 -17.5°
Reaches altitude 10° 18:35:14 10° 351° (N) 3,103 5.8 -18.0°
Maximum altitude 18:41:28 29° 49° (NE) 1,940 4.0 -19.0°
Enters shadow 18:44:45 20° 89° (E) 2,265 4.0 -19.5°
